Flag for U.S.A. Weather past 2 weeks in Rapid City, South Dakota, U.S.A.

Now
71 °F

Overcast.


Feels Like: 77 °F
Forecast: 65 / 90 °F
Wind: 5 mph from Southeast

Location: Ellsworth Air Force Base

Current Time: Sep 4, 2015 at 6:23:42 AM

Latest Report: Sep 4, 2015 at 4:58 AM


Visibility: 10 mi

Pressure: 29.67 "Hg (26.50 "Hg at 977m altitude)

Humidity: 50%

Dew point: 51 °F

Location of Rapid CityLocation

Historic Weather in Rapid City — Graph

°F

Rapid City temperature yesterday

Maximum temperature yesterday: 97 °F (at 12:58 PM)
Minimum temperature yesterday: 65 °F (at 5:58 AM)
Average temperature yesterday: 81 °F

Past Weeks' High & Low Weather Summary

 TemperatureHumidityPressure
High99 °F (Aug 30, 2:58 PM)100% (Sep 1, 6:58 AM)30.25 "Hg (Sep 1, 6:58 AM)
Low41 °F (Aug 23, 4:58 AM)18% (Sep 2, 3:58 PM)29.42 "Hg (Aug 22, 2:58 AM)
Average71 °F53%29.88 "Hg
* Reported Aug 20 4:58 AM — Sep 4 4:58 AM, Rapid City, Weather by CustomWeather, © 2015

Note: Actual official high and low records may vary slightly from our data, if they occured in-between our weather recording intervals... More about our weather records

Advertising

Rapid City weather history for previous 24 hours

 ConditionsComfort  
Time TempWeatherWind HumidityBarometerVisibility
4:58 AM
Fri, Sep 4
71 °FOvercast.5 mph50%29.67 "Hg10 mi
3:58 AM72 °FOvercast.6 mph49%29.68 "Hg10 mi
2:58 AM72 °FOvercast.14 mph49%29.67 "Hg10 mi
1:58 AM74 °FMostly cloudy.13 mph45%29.67 "Hg10 mi
12:58 AM74 °FOvercast.8 mph46%29.66 "Hg10 mi
11:58 PM
Thu, Sep 3
75 °FPassing clouds.12 mph45%29.66 "Hg10 mi
10:58 PM78 °FClear.13 mph40%29.66 "Hg10 mi
9:58 PM80 °FClear.16 mph37%29.67 "Hg10 mi
8:58 PM80 °FClear.16 mph38%29.68 "Hg10 mi
7:58 PM81 °FPartly cloudy.15 mph40%29.69 "Hg10 mi
6:58 PM88 °FOvercast.13 mph30%29.65 "Hg10 mi
5:58 PM89 °FSunny.13 mph29%29.65 "Hg10 mi
4:58 PM96 °FSunny.16 mph19%29.63 "Hg10 mi
3:58 PM95 °FSunny.9 mph20%29.64 "Hg10 mi
2:58 PM96 °FScattered clouds.7 mph20%29.66 "Hg10 mi
1:58 PM97 °FPassing clouds.13 mph18%29.65 "Hg10 mi
12:58 PM97 °FSunny.3 mph18%29.66 "Hg10 mi
11:58 AM95 °FSunny.8 mph26%29.67 "Hg10 mi
10:58 AM90 °FSunny.9 mph32%29.70 "Hg10 mi
9:58 AM86 °FSunny.8 mph34%29.70 "Hg10 mi
8:58 AM80 °FSunny.7 mph39%29.69 "Hg10 mi
7:58 AM71 °FSunny.2 mph46%29.71 "Hg10 mi
6:58 AM67 °FScattered clouds.5 mph51%29.69 "Hg10 mi
Weather by CustomWeather, © 2015

See weather overviewHow to use our weather pages